Terminal Aerodrome Forecast
Issued by NWS Topeka, KS

Home | Current Version | Previous Version | Graphics & Text | Print | Product List | Glossary On
Versions: 1 2 3 4 5 6 7 8 9 10 11 12 13 14
666
FTUS43 KTOP 171126
TAFTOP
TAF
KTOP 171126Z 1712/1812 09008KT P6SM SCT200
     FM171600 11012G21KT P6SM BKN040
     FM172200 13013G23KT P6SM SCT035
     FM180500 16014KT P6SM SCT045 WS020/19040KT
     FM180900 28016G26KT P6SM BKN020=

USA.gov is the U.S. government's official web portal to all federal, state and local government web resources and services.